• Em Portugal
  • Lista de países
  • Para 7 dias
  • Temperatura da água
  • Mapas de satélite
  • Mapa do tempo
  • Widgets de tempo
  • user-avatar
    Iniciar Sessão

    Previsão horária em Altaj

    Hoje, 18 Setembro, Terça-feira

    Tempo Temperatura Precipitação Vento Pressão Humidade
    00:00 +4°C° 0 mm 3 m/s 568 mmHg 28%
    01:00 +4°C° 0 mm 3 m/s 567 mmHg 30%
    02:00 +4°C° 0 mm 3 m/s 567 mmHg 31%
    03:00 +3°C° 0 mm 3 m/s 567 mmHg 33%
    04:00 +3°C° 0 mm 3 m/s 567 mmHg 34%
    05:00 +3°C° 0 mm 3 m/s 567 mmHg 35%
    06:00 +3°C° 0 mm 3 m/s 567 mmHg 36%
    07:00 +5°C° 0 mm 4 m/s 568 mmHg 32%
    08:00 +6°C° 0 mm 5 m/s 568 mmHg 29%
    09:00 +8°C° 0 mm 6 m/s 569 mmHg 25%
    10:00 +8°C° 0 mm 6 m/s 569 mmHg 24%
    11:00 +9°C° 0 mm 6 m/s 569 mmHg 23%
    12:00 +10°C° 0 mm 7 m/s 569 mmHg 21%
    13:00 +10°C° 0 mm 6 m/s 569 mmHg 22%
    14:00 +10°C° 0 mm 6 m/s 569 mmHg 23%
    15:00 +10°C° 0 mm 6 m/s 569 mmHg 24%
    16:00 +8°C° 0 mm 6 m/s 568 mmHg 30%
    17:00 +7°C° 0 mm 6 m/s 568 mmHg 36%
    18:00 +4°C° 0 mm 6 m/s 567 mmHg 42%
    19:00 +3°C° 0.3 mm 5 m/s 567 mmHg 48%
    20:00 +3°C° 0.3 mm 4 m/s 567 mmHg 54%
    21:00 +2°C° 0.3 mm 3 m/s 567 mmHg 60%
    22:00 +2°C° 0 mm 3 m/s 567 mmHg 59%
    23:00 +2°C° 0 mm 3 m/s 567 mmHg 59%

    Amanhã, 19 Setembro, Quarta-feira

    Tempo Temperatura Precipitação Vento Pressão Humidade
    00:00 +1°C° 0 mm 4 m/s 567 mmHg 58%
    01:00 0°C° 0.2 mm 5 m/s 566 mmHg 62%
    02:00 -2°C° 0.2 mm 6 m/s 566 mmHg 65%
    03:00 -3°C° 0.2 mm 6 m/s 566 mmHg 68%
    04:00 -4°C° 0.3 mm 7 m/s 566 mmHg 69%
    05:00 -4°C° 0.3 mm 7 m/s 566 mmHg 70%
    06:00 -6°C° 0.3 mm 7 m/s 566 mmHg 70%
    07:00 -6°C° 0.1 mm 7 m/s 567 mmHg 69%
    08:00 -4°C° 0.1 mm 7 m/s 567 mmHg 67%
    09:00 -4°C° 0.1 mm 7 m/s 568 mmHg 65%
    10:00 -5°C° 0.1 mm 8 m/s 568 mmHg 60%
    11:00 -4°C° 0.1 mm 8 m/s 568 mmHg 55%
    12:00 -2°C° 0.1 mm 8 m/s 569 mmHg 50%
    13:00 -2°C° 0.1 mm 8 m/s 569 mmHg 48%
    14:00 -4°C° 0.1 mm 8 m/s 569 mmHg 47%
    15:00 -4°C° 0.1 mm 8 m/s 569 mmHg 45%
    16:00 -4°C° 0.1 mm 8 m/s 569 mmHg 46%
    17:00 -4°C° 0.1 mm 7 m/s 569 mmHg 47%
    18:00 -4°C° 0.1 mm 7 m/s 570 mmHg 48%
    19:00 -6°C° 0.1 mm 7 m/s 570 mmHg 50%
    20:00 -5°C° 0.1 mm 6 m/s 570 mmHg 51%
    21:00 -6°C° 0.1 mm 6 m/s 571 mmHg 52%
    22:00 -6°C° 0 mm 5 m/s 571 mmHg 53%
    23:00 -7°C° 0 mm 5 m/s 570 mmHg 54%

    Depois de amanhã, 20 Setembro, Quinta-feira

    Tempo Temperatura Precipitação Vento Pressão Humidade
    00:00 -7°C° 0 mm 5 m/s 570 mmHg 55%
    01:00 -8°C° 0 mm 4 m/s 570 mmHg 56%
    02:00 -8°C° 0 mm 4 m/s 570 mmHg 57%
    03:00 -9°C° 0 mm 4 m/s 570 mmHg 59%
    04:00 -8°C° 0 mm 3 m/s 570 mmHg 59%
    05:00 -8°C° 0 mm 3 m/s 570 mmHg 58%
    06:00 -8°C° 0 mm 3 m/s 570 mmHg 58%
    07:00 -7°C° 0 mm 3 m/s 571 mmHg 53%
    08:00 -6°C° 0 mm 3 m/s 571 mmHg 49%
    09:00 -5°C° 0 mm 3 m/s 571 mmHg 44%
    10:00 -4°C° 0 mm 3 m/s 571 mmHg 41%
    11:00 -2°C° 0 mm 3 m/s 571 mmHg 38%
    12:00 -1°C° 0 mm 3 m/s 571 mmHg 34%
    13:00 -1°C° 0 mm 3 m/s 571 mmHg 33%
    14:00 0°C° 0 mm 3 m/s 571 mmHg 32%
    15:00 0°C° 0 mm 3 m/s 571 mmHg 31%
    16:00 +1°C° 0 mm 2 m/s 571 mmHg 33%
    17:00 -1°C° 0 mm 2 m/s 571 mmHg 35%
    18:00 -1°C° 0 mm 2 m/s 571 mmHg 37%
    19:00 0°C° 0 mm 1 m/s 571 mmHg 38%
    20:00 0°C° 0 mm 1 m/s 571 mmHg 39%
    21:00 0°C° 0 mm 1 m/s 571 mmHg 40%
    22:00 0°C° 0 mm 1 m/s 571 mmHg 40%
    23:00 -1°C° 0 mm 1 m/s 571 mmHg 39%

    21 Setembro, Sexta-feira

    Tempo Temperatura Precipitação Vento Pressão Humidade
    00:00 -1°C° 0 mm 1 m/s 571 mmHg 39%
    01:00 -1°C° 0 mm 1 m/s 570 mmHg 39%
    02:00 -1°C° 0 mm 1 m/s 570 mmHg 38%
    03:00 -1°C° 0 mm 1 m/s 570 mmHg 38%
    04:00 -1°C° 0 mm 1 m/s 570 mmHg 37%
    05:00 -1°C° 0 mm 1 m/s 570 mmHg 37%
    06:00 -1°C° 0 mm 1 m/s 570 mmHg 36%
    07:00 +1°C° 0 mm 1 m/s 571 mmHg 32%
    08:00 +2°C° 0 mm 1 m/s 572 mmHg 29%
    09:00 +4°C° 0 mm 1 m/s 572 mmHg 25%
    10:00 +5°C° 0 mm 1 m/s 573 mmHg 23%
    11:00 +6°C° 0 mm 1 m/s 573 mmHg 22%
    12:00 +7°C° 0 mm 1 m/s 573 mmHg 20%
    13:00 +7°C° 0 mm 1 m/s 573 mmHg 20%
    14:00 +7°C° 0 mm 2 m/s 573 mmHg 20%
    15:00 +7°C° 0 mm 2 m/s 573 mmHg 20%
    16:00 +7°C° 0 mm 1 m/s 572 mmHg 22%
    17:00 +6°C° 0 mm 1 m/s 572 mmHg 24%
    18:00 +5°C° 0 mm 1 m/s 572 mmHg 27%
    19:00 +5°C° 0 mm 1 m/s 572 mmHg 28%
    20:00 +4°C° 0 mm 1 m/s 572 mmHg 29%
    21:00 +4°C° 0 mm 1 m/s 572 mmHg 30%
    22:00 +3°C° 0 mm 1 m/s 571 mmHg 30%
    23:00 +3°C° 0 mm 1 m/s 571 mmHg 29%

    22 Setembro, Sábado

    Tempo Temperatura Precipitação Vento Pressão Humidade
    00:00 +3°C° 0 mm 1 m/s 571 mmHg 29%
    01:00 +2°C° 0 mm 1 m/s 571 mmHg 29%
    02:00 +2°C° 0 mm 1 m/s 570 mmHg 29%
    03:00 +2°C° 0 mm 1 m/s 570 mmHg 28%
    04:00 +1°C° 0 mm 0 m/s 570 mmHg 28%
    05:00 +1°C° 0 mm 0 m/s 571 mmHg 28%
    06:00 +1°C° 0 mm 0 m/s 571 mmHg 28%
    07:00 +2°C° 0 mm 0 m/s 572 mmHg 25%
    08:00 +4°C° 0 mm 0 m/s 573 mmHg 22%
    09:00 +6°C° 0 mm 0 m/s 574 mmHg 19%
    10:00 +7°C° 0 mm 0 m/s 575 mmHg 17%
    11:00 +9°C° 0 mm 1 m/s 575 mmHg 16%
    12:00 +10°C° 0 mm 1 m/s 575 mmHg 14%
    13:00 +10°C° 0 mm 1 m/s 575 mmHg 14%
    14:00 +10°C° 0 mm 1 m/s 575 mmHg 14%
    15:00 +11°C° 0 mm 1 m/s 575 mmHg 14%
    16:00 +10°C° 0 mm 1 m/s 574 mmHg 17%
    17:00 +8°C° 0 mm 1 m/s 574 mmHg 20%
    18:00 +6°C° 0 mm 0 m/s 573 mmHg 23%
    19:00 +7°C° 0 mm 1 m/s 573 mmHg 23%
    20:00 +7°C° 0 mm 1 m/s 573 mmHg 23%
    21:00 +6°C° 0 mm 1 m/s 573 mmHg 23%
    22:00 +6°C° 0 mm 1 m/s 573 mmHg 23%
    23:00 +5°C° 0 mm 1 m/s 572 mmHg 23%

    23 Setembro, Domingo

    Tempo Temperatura Precipitação Vento Pressão Humidade
    00:00 +5°C° 0 mm 1 m/s 572 mmHg 23%
    01:00 +4°C° 0 mm 2 m/s 572 mmHg 23%
    02:00 +4°C° 0 mm 2 m/s 572 mmHg 23%
    03:00 +4°C° 0 mm 2 m/s 572 mmHg 23%
    04:00 +3°C° 0 mm 2 m/s 572 mmHg 24%
    05:00 +3°C° 0 mm 2 m/s 572 mmHg 24%
    06:00 +3°C° 0 mm 2 m/s 572 mmHg 25%
    07:00 +5°C° 0 mm 2 m/s 573 mmHg 22%
    08:00 +7°C° 0 mm 2 m/s 574 mmHg 19%
    09:00 +8°C° 0 mm 2 m/s 575 mmHg 17%
    10:00 +9°C° 0 mm 2 m/s 575 mmHg 16%
    11:00 +10°C° 0 mm 2 m/s 575 mmHg 15%
    12:00 +12°C° 0 mm 2 m/s 575 mmHg 13%
    13:00 +12°C° 0 mm 2 m/s 575 mmHg 14%
    14:00 +12°C° 0 mm 2 m/s 574 mmHg 14%
    15:00 +12°C° 0 mm 2 m/s 574 mmHg 14%
    16:00 +10°C° 0 mm 2 m/s 574 mmHg 17%
    17:00 +10°C° 0 mm 1 m/s 573 mmHg 20%
    18:00 +9°C° 0 mm 1 m/s 573 mmHg 22%
    19:00 +9°C° 0 mm 1 m/s 573 mmHg 23%
    20:00 +7°C° 0 mm 2 m/s 572 mmHg 23%
    21:00 +7°C° 0 mm 2 m/s 572 mmHg 23%
    22:00 +6°C° 0 mm 2 m/s 572 mmHg 23%
    23:00 +6°C° 0 mm 2 m/s 571 mmHg 24%
    Mostrar mais